Regional Weather Roundup
Issued by NWS

Home | Current Version | Previous Version | Graphics & Text | Print | Product List | Glossary On
Versions: 1 2 3 4 5 6 7 8 9 10 11 12 13 14 15 16 17 18 19 20 21 22 23 24 25 26 27 28 29 30 31 32 33 34 35 36 37 38 39 40 41 42 43 44 45 46 47 48 49
000
ASUS45 KBOU 210307
RWRCO

WEATHER ROUNDUP FOR COLORADO
NATIONAL WEATHER SERVICE DENVER/BOULDER CO
800 PM MST THU NOV 20 2014

NOTE: "FAIR" INDICATES FEW OR NO CLOUDS BELOW 12000 FEET WITH NO
SIGNIFICANT WEATHER AND/OR OBSTRUCTIONS TO VISIBILITY.

COZ001>005-013-030-031-210400-
...NORTHWEST COLORADO...

CITY           SKY/WX    TMP DP  RH WIND       PRES   REMARKS
CRAIG          CLOUDY    28  22  78 CALM      30.07S
HAYDEN         MOCLDY    30  19  64 S3        30.07S
MEEKER         CLOUDY    33  23  66 CALM      30.06S
MOUNT WERNER   NOT AVBL
STEAMBOAT SPGS CLOUDY    30  19  63 SE8       30.07S WCI  22
WALDEN         MOCLDY    30  19  64 SE5       30.05F WCI  25
$$

COZ006>008-011-210400-
...WEST CENTRAL VALLEYS...

CITY           SKY/WX    TMP DP  RH WIND       PRES   REMARKS
GRAND JUNCTION CLOUDY    37  23  56 CALM      30.08S
MONTROSE       MOCLDY    32  20  61 SE6       30.11S WCI  26
EAGLE          MOCLDY    27  21  80 CALM      30.11S
RIFLE          MOCLDY    29  19  66 CALM      30.09S
DELTA          CLOUDY    38  15  40 CALM      30.11S
NUCLA          NOT AVBL
$$

COZ017>023-064>068-210400-
...SOUTHWEST COLORADO...

CITY           SKY/WX    TMP DP  RH WIND       PRES   REMARKS
DURANGO        PTCLDY    32  18  56 N10       30.09S WCI  24
CORTEZ         CLOUDY    34  21  59 E5        30.08S WCI  30
PAGOSA SPRINGS PTCLDY    29  15  54 CALM      30.11S
TELLURIDE      CLOUDY    30  21  69 CALM      30.14R
WOLF CREEK PAS CLOUDY    18   7  62 SW9       30.14S WCI   6
$$

COZ009-010-012-014-032>034-037-058>063-210400-
...CENTRAL COLORADO...

CITY           SKY/WX    TMP DP  RH WIND       PRES   REMARKS
ASPEN          CLOUDY    25  15  66 S6        30.08F WCI  18
BUENA VISTA    PTCLDY    32  14  48 SW6       30.05S WCI  26
COPPER MTN     CLOUDY    23   3  42 W16       30.12S WCI  10
BERTHOUD PASS  CLOUDY    14  10  85 NW18G24   30.11F WCI  -3
COTTONWOOD PAS PTCLDY    34  14  44 W16G22    30.08S WCI  23
GUNNISON       PTCLDY    25  14  63 N5        30.14S WCI  19
KREMMLING      CLOUDY    27  19  74 CALM      30.11R
LEADVILLE      MOCLDY    23   5  46 NE6       30.08S WCI  16
MONARCH PASS   CLOUDY    19  10  68 W22       30.21S WCI   3
SALIDA         PTCLDY    40  11  30 SW15G23   30.12S
SUNLIGHT       MOCLDY    23  12  63 CALM      30.13S
WILKERSON PASS MOCLDY    27   7  43 SW5       30.12F WCI  21
$$

COZ069>075-210400-
...SAN LUIS VALLEY/SANGRE DE CRISTO MOUNTAINS...

CITY           SKY/WX    TMP DP  RH WIND       PRES   REMARKS
ALAMOSA        PTCLDY    26  10  50 N7        30.07S WCI  18
LA VETA PASS   CLOUDY    28   5  37 S12G18    30.08F WCI  18
SAGUACHE       PTCLDY    28  14  54 N5        30.09S WCI  23
$$

COZ035-036-038>040-210400-
...NORTHERN COLORADO FRONT RANGE...

CITY           SKY/WX    TMP DP  RH WIND       PRES   REMARKS
DENVER INTL AP MOCLDY    37  26  64 SW6       29.97S
DMNS CITY PARK   N/A     38  25  60 CALM      29.98S
AURORA         MOCLDY    39  24  55 S3        29.99S
FRONT RANGE AP NOT AVBL
ERIE MUNI ARPT CLOUDY    34  27  75 CALM      29.98S
BOULDER MUN AP CLOUDY    39  27  60 SW5       29.97S
CENTENNIAL     MOCLDY    38  23  55 S3        29.98F
BROOMFIELD     MOCLDY    39  25  56 VRB3      29.98S
FORT COLLINS   MOCLDY    36  27  69 N7        29.99S
LONGMONT       CLOUDY    38  28  69 CALM      29.99F
$$

COZ041-046-047-076>085-087-088-210400-
...PIKES PEAK/PALMER DIVIDE AND SOUTHERN FOOTHILLS...

CITY           SKY/WX    TMP DP  RH WIND       PRES   REMARKS
COLO. SPRINGS  CLOUDY    35  18  49 CALM      30.03R
A. F. ACADEMY  CLOUDY    37  16  41 NW2       30.01S
ELLICOTT       CLOUDY    36  25  64 SE7       30.01S
FALCON         NOT AVBL
FORT CARSON    CLOUDY    39  20  45 SE3       30.01S
LIMON          MOCLDY    33  17  51 S7        30.01R WCI  27
MONUMENT HILL  MOCLDY    32  14  47 S9        30.00S WCI  24
TRINIDAD       MOCLDY    34  24  67 W7        30.00S WCI  28
$$

COZ042>045-048>051-090-091-210400-
...NORTHEAST COLORADO...

CITY           SKY/WX    TMP DP  RH WIND       PRES   REMARKS
GREELEY ARPT   MOCLDY    32  19  59 NW7       29.98S WCI  26
AKRON          PTCLDY    37  17  44 S9        29.98S
BURLINGTON     CLOUDY    39  21  48 S12       30.02R
WRAY           PTCLDY    32  17  54 CALM      30.01S
STERLING       PTCLDY    32  19  59 W9        29.98S WCI  24
HOLYOKE        PTCLDY    27  18  69 S8        30.00F WCI  18
FORT MORGAN    PTCLDY    37  14  38 CALM      29.98S
$$

COZ086-089-092>099-210400-
...SOUTHEAST COLORADO...

CITY           SKY/WX    TMP DP  RH WIND       PRES   REMARKS
PUEBLO         CLOUDY    36  29  75 CALM      30.01S
LA JUNTA       CLOUDY    37  30  75 E6        30.00R
LAMAR          CLOUDY    36  28  73 SE3       30.01R
SPRINGFIELD      N/A     34  27  75 SE3       30.02F
$$



USA.gov is the U.S. government's official web portal to all federal, state and local government web resources and services.